• In Germany
  • List of Countries
  • For 7 days
  • Water Temperature
  • Satellite Maps
  • Weather Map
  • Weather Widgets
  • user-avatar
    Login

    Hourly Weather New Bern

    Today, 17 January, Wednesday

    Time Temperature Precipitation Wind Pressure Humidity
    00:00 +2°C° 0 mm 0 mps 770 mmHg 80%
    01:00 +1°C° 0 mm 0 mps 769 mmHg 80%
    02:00 +1°C° 0 mm 0 mps 769 mmHg 79%
    03:00 +2°C° 0 mm 1 mps 769 mmHg 78%
    04:00 +2°C° 0 mm 1 mps 769 mmHg 77%
    05:00 +2°C° 0 mm 1 mps 769 mmHg 76%
    06:00 +2°C° 0 mm 1 mps 768 mmHg 75%
    07:00 +2°C° 0 mm 1 mps 768 mmHg 73%
    08:00 +3°C° 0 mm 2 mps 768 mmHg 68%
    09:00 +4°C° 0 mm 2 mps 768 mmHg 62%
    10:00 +6°C° 0 mm 2 mps 768 mmHg 56%
    11:00 +7°C° 0 mm 2 mps 768 mmHg 55%
    12:00 +8°C° 0 mm 2 mps 767 mmHg 54%
    13:00 +9°C° 0 mm 2 mps 767 mmHg 53%
    14:00 +8°C° 0.1 mm 3 mps 767 mmHg 58%
    15:00 +7°C° 0.1 mm 3 mps 766 mmHg 64%
    16:00 +5°C° 0.1 mm 3 mps 766 mmHg 70%
    17:00 +3°C° 0.2 mm 4 mps 766 mmHg 76%
    18:00 +1°C° 0.2 mm 4 mps 766 mmHg 81%
    19:00 -1°C° 0.2 mm 5 mps 766 mmHg 87%
    20:00 -2°C° 0.4 mm 5 mps 766 mmHg 87%
    21:00 -4°C° 0.4 mm 5 mps 766 mmHg 87%
    22:00 -5°C° 0.4 mm 6 mps 766 mmHg 87%
    23:00 -5°C° 0.2 mm 6 mps 766 mmHg 84%

    Tomorrow, 18 January, Thursday

    Time Temperature Precipitation Wind Pressure Humidity
    00:00 -6°C° 0.2 mm 6 mps 766 mmHg 82%
    01:00 -6°C° 0.2 mm 6 mps 766 mmHg 79%
    02:00 -6°C° 0 mm 6 mps 767 mmHg 75%
    03:00 -8°C° 0 mm 6 mps 767 mmHg 72%
    04:00 -7°C° 0 mm 5 mps 767 mmHg 68%
    05:00 -8°C° 0 mm 5 mps 768 mmHg 72%
    06:00 -8°C° 0 mm 4 mps 768 mmHg 75%
    07:00 -9°C° 0 mm 4 mps 769 mmHg 78%
    08:00 -8°C° 0 mm 4 mps 769 mmHg 71%
    09:00 -7°C° 0 mm 4 mps 769 mmHg 65%
    10:00 -4°C° 0 mm 4 mps 770 mmHg 58%
    11:00 -3°C° 0 mm 4 mps 769 mmHg 55%
    12:00 -1°C° 0 mm 4 mps 769 mmHg 51%
    13:00 +1°C° 0 mm 4 mps 768 mmHg 48%
    14:00 +1°C° 0 mm 4 mps 768 mmHg 52%
    15:00 +1°C° 0 mm 4 mps 768 mmHg 55%
    16:00 +1°C° 0 mm 4 mps 767 mmHg 58%
    17:00 0°C° 0 mm 4 mps 767 mmHg 66%
    18:00 0°C° 0 mm 3 mps 768 mmHg 73%
    19:00 -2°C° 0 mm 3 mps 768 mmHg 80%
    20:00 -2°C° 0 mm 3 mps 768 mmHg 80%
    21:00 -1°C° 0 mm 3 mps 768 mmHg 80%
    22:00 -1°C° 0 mm 3 mps 768 mmHg 80%
    23:00 -1°C° 0 mm 3 mps 768 mmHg 79%

    Day after tomorrow, 19 January, Friday

    Time Temperature Precipitation Wind Pressure Humidity
    00:00 -1°C° 0 mm 3 mps 768 mmHg 79%
    01:00 -1°C° 0 mm 3 mps 768 mmHg 78%
    02:00 -1°C° 0 mm 3 mps 768 mmHg 78%
    03:00 -2°C° 0 mm 3 mps 768 mmHg 78%
    04:00 -2°C° 0 mm 3 mps 767 mmHg 79%
    05:00 -2°C° 0 mm 3 mps 768 mmHg 78%
    06:00 -2°C° 0 mm 3 mps 768 mmHg 78%
    07:00 -2°C° 0 mm 2 mps 768 mmHg 78%
    08:00 +1°C° 0 mm 2 mps 768 mmHg 70%
    09:00 +2°C° 0 mm 3 mps 769 mmHg 62%
    10:00 +4°C° 0 mm 3 mps 769 mmHg 54%
    11:00 +7°C° 0 mm 3 mps 768 mmHg 51%
    12:00 +8°C° 0 mm 3 mps 768 mmHg 48%
    13:00 +10°C° 0 mm 3 mps 767 mmHg 44%
    14:00 +10°C° 0 mm 3 mps 767 mmHg 47%
    15:00 +10°C° 0 mm 2 mps 767 mmHg 50%
    16:00 +10°C° 0 mm 2 mps 767 mmHg 54%
    17:00 +7°C° 0 mm 2 mps 767 mmHg 62%
    18:00 +5°C° 0 mm 2 mps 767 mmHg 70%
    19:00 +4°C° 0 mm 1 mps 768 mmHg 78%
    20:00 +3°C° 0 mm 1 mps 768 mmHg 79%
    21:00 +2°C° 0 mm 2 mps 768 mmHg 80%
    22:00 +2°C° 0 mm 2 mps 768 mmHg 81%
    23:00 +1°C° 0 mm 2 mps 768 mmHg 81%

    20 January, Saturday

    Time Temperature Precipitation Wind Pressure Humidity
    00:00 +1°C° 0 mm 2 mps 768 mmHg 81%
    01:00 +1°C° 0 mm 2 mps 768 mmHg 81%
    02:00 +1°C° 0 mm 2 mps 768 mmHg 81%
    03:00 +1°C° 0 mm 2 mps 768 mmHg 81%
    04:00 -1°C° 0 mm 2 mps 768 mmHg 81%
    05:00 -1°C° 0 mm 2 mps 768 mmHg 80%
    06:00 -1°C° 0 mm 2 mps 768 mmHg 80%
    07:00 -1°C° 0 mm 2 mps 769 mmHg 80%
    08:00 +2°C° 0 mm 2 mps 769 mmHg 72%
    09:00 +5°C° 0 mm 2 mps 769 mmHg 64%
    10:00 +7°C° 0 mm 3 mps 770 mmHg 55%
    11:00 +9°C° 0 mm 3 mps 769 mmHg 51%
    12:00 +11°C° 0 mm 3 mps 769 mmHg 47%
    13:00 +12°C° 0 mm 3 mps 769 mmHg 43%
    14:00 +12°C° 0 mm 3 mps 768 mmHg 46%
    15:00 +12°C° 0 mm 3 mps 768 mmHg 49%
    16:00 +13°C° 0 mm 2 mps 768 mmHg 52%
    17:00 +10°C° 0 mm 2 mps 768 mmHg 58%
    18:00 +8°C° 0 mm 2 mps 769 mmHg 65%
    19:00 +6°C° 0 mm 2 mps 769 mmHg 71%
    20:00 +5°C° 0 mm 2 mps 769 mmHg 72%
    21:00 +5°C° 0 mm 2 mps 769 mmHg 73%
    22:00 +4°C° 0 mm 2 mps 769 mmHg 74%
    23:00 +4°C° 0 mm 2 mps 769 mmHg 74%

    21 January, Sunday

    Time Temperature Precipitation Wind Pressure Humidity
    00:00 +4°C° 0 mm 2 mps 769 mmHg 74%
    01:00 +3°C° 0 mm 2 mps 769 mmHg 74%
    02:00 +3°C° 0 mm 2 mps 769 mmHg 74%
    03:00 +4°C° 0 mm 1 mps 768 mmHg 75%
    04:00 +4°C° 0 mm 1 mps 768 mmHg 75%
    05:00 +4°C° 0 mm 1 mps 769 mmHg 75%
    06:00 +3°C° 0 mm 1 mps 769 mmHg 75%
    07:00 +3°C° 0 mm 1 mps 769 mmHg 76%
    08:00 +6°C° 0 mm 1 mps 770 mmHg 68%
    09:00 +8°C° 0 mm 1 mps 770 mmHg 60%
    10:00 +11°C° 0 mm 1 mps 770 mmHg 52%
    11:00 +12°C° 0 mm 1 mps 770 mmHg 47%
    12:00 +14°C° 0 mm 1 mps 769 mmHg 43%
    13:00 +16°C° 0 mm 1 mps 768 mmHg 38%
    14:00 +16°C° 0 mm 1 mps 768 mmHg 41%
    15:00 +16°C° 0 mm 1 mps 768 mmHg 43%
    16:00 +16°C° 0 mm 1 mps 767 mmHg 46%
    17:00 +14°C° 0 mm 1 mps 768 mmHg 51%
    18:00 +11°C° 0 mm 1 mps 768 mmHg 56%
    19:00 +9°C° 0 mm 1 mps 768 mmHg 61%
    20:00 +9°C° 0 mm 1 mps 768 mmHg 64%
    21:00 +9°C° 0 mm 1 mps 767 mmHg 67%
    22:00 +8°C° 0 mm 1 mps 767 mmHg 70%
    23:00 +8°C° 0 mm 1 mps 767 mmHg 76%

    22 January, Monday

    Time Temperature Precipitation Wind Pressure Humidity
    00:00 +8°C° 0 mm 1 mps 767 mmHg 82%
    01:00 +9°C° 0 mm 1 mps 766 mmHg 87%
    02:00 +9°C° 0 mm 1 mps 766 mmHg 89%
    03:00 +10°C° 0 mm 1 mps 765 mmHg 91%
    04:00 +10°C° 0 mm 1 mps 765 mmHg 93%
    05:00 +10°C° 0 mm 1 mps 765 mmHg 93%
    06:00 +10°C° 0 mm 2 mps 764 mmHg 94%
    07:00 +10°C° 0 mm 2 mps 764 mmHg 94%
    08:00 +13°C° 0 mm 3 mps 764 mmHg 89%
    09:00 +15°C° 0 mm 4 mps 763 mmHg 83%
    10:00 +19°C° 0 mm 4 mps 763 mmHg 78%
    11:00 +20°C° 0 mm 5 mps 762 mmHg 74%
    12:00 +21°C° 0 mm 5 mps 761 mmHg 71%
    13:00 +22°C° 0 mm 6 mps 760 mmHg 67%
    14:00 +22°C° 0 mm 6 mps 759 mmHg 65%
    15:00 +21°C° 0 mm 6 mps 758 mmHg 64%
    16:00 +21°C° 0 mm 6 mps 758 mmHg 62%
    17:00 +20°C° 0 mm 6 mps 758 mmHg 67%
    18:00 +18°C° 0 mm 7 mps 758 mmHg 72%
    19:00 +17°C° 0 mm 7 mps 758 mmHg 77%
    20:00 +16°C° 0.1 mm 7 mps 758 mmHg 77%
    21:00 +16°C° 0.1 mm 7 mps 759 mmHg 76%
    22:00 +15°C° 0.1 mm 7 mps 759 mmHg 76%
    23:00 +13°C° 0 mm 6 mps 760 mmHg 74%
    Show more